| time (UTC) | temp F | wind direction | speed MPH | gust MPH | rain 1hr in | rain 24hr in | rain mn in | humidity % | barometer mb |
| 20260507032504 | 50 | 115 | 0.0 | 0.0 | 0.00 | 0.00 | 0.00 | 90 | 1020.7 |
| 20260507032003 | 50 | 115 | 0.0 | 0.0 | 0.00 | 0.00 | 0.00 | 90 | 1020.6 |
| 20260507031509 | 50 | 115 | 0.0 | 0.0 | 0.00 | 0.00 | 0.00 | 90 | 1020.5 |
| 20260507031003 | 50 | 115 | 0.0 | 0.0 | 0.00 | 0.00 | 0.00 | 89 | 1020.7 |
| 20260507030507 | 50 | 115 | 0.0 | 0.0 | 0.00 | 0.00 | 0.00 | 90 | 1020.6 |
| 20260507030024 | 50 | 115 | 0.0 | 0.0 | 0.00 | 0.00 | 0.00 | 90 | 1020.6 |
| 20260507025505 | 50 | 115 | 0.0 | 1.0 | 0.00 | 0.00 | 0.00 | 90 | 1020.6 |
| 20260507025006 | 50 | 115 | 0.0 | 1.0 | 0.00 | 0.00 | 0.00 | 90 | 1020.6 |
| 20260507024523 | 50 | 115 | 0.0 | 2.0 | 0.00 | 0.00 | 0.00 | 90 | 1020.6 |
| 20260507024007 | 50 | 115 | 0.0 | 2.0 | 0.00 | 0.00 | 0.00 | 90 | 1020.5 |
| 20260507023506 | 50 | 115 | 0.0 | 2.0 | 0.00 | 0.00 | 0.00 | 90 | 1020.5 |
| 20260507023018 | 50 | 115 | 0.0 | 1.0 | 0.00 | 0.00 | 0.00 | 90 | 1020.4 |
| 20260507022509 | 50 | 115 | 0.0 | 1.0 | 0.00 | 0.00 | 0.00 | 90 | 1020.4 |
| 20260507022008 | 50 | 115 | 0.0 | 2.0 | 0.00 | 0.00 | 0.00 | 90 | 1020.3 |
| 20260507021522 | 50 | 115 | 0.0 | 2.0 | 0.00 | 0.00 | 0.00 | 90 | 1020.3 |
| 20260507021004 | 50 | 115 | 0.0 | 2.0 | 0.00 | 0.00 | 0.00 | 89 | 1020.4 |
| 20260507020504 | 50 | 103 | 0.0 | 2.0 | 0.00 | 0.00 | 0.00 | 89 | 1020.4 |
| 20260507020009 | 50 | 103 | 0.0 | 2.0 | 0.00 | 0.00 | 0.00 | 89 | 1020.5 |
| 20260507015508 | 51 | 103 | 0.0 | 0.0 | 0.00 | 0.00 | 0.00 | 89 | 1020.4 |
| 20260507015009 | 51 | 103 | 0.0 | 0.0 | 0.00 | 0.00 | 0.00 | 88 | 1020.5 |
| 20260507014514 | 51 | 103 | 0.0 | 0.0 | 0.00 | 0.00 | 0.00 | 89 | 1020.4 |
| 20260507014009 | 51 | 103 | 0.0 | 0.0 | 0.00 | 0.00 | 0.00 | 89 | 1020.4 |
| 20260507013507 | 51 | 103 | 0.0 | 0.0 | 0.00 | 0.00 | 0.00 | 88 | 1020.5 |
| 20260507013016 | 51 | 103 | 0.0 | 0.0 | 0.00 | 0.00 | 0.00 | 89 | 1020.6 |
| 20260507012510 | 51 | 103 | 0.0 | 0.0 | 0.00 | 0.00 | 0.00 | 89 | 1020.5 |
| 20260507012009 | 51 | 103 | 0.0 | 1.0 | 0.00 | 0.00 | 0.00 | 89 | 1020.5 |
| 20260507011522 | 51 | 103 | 0.0 | 2.0 | 0.00 | 0.00 | 0.00 | 88 | 1020.5 |
| 20260507011008 | 51 | 103 | 0.0 | 2.0 | 0.00 | 0.00 | 0.00 | 87 | 1020.4 |
| 20260507010509 | 51 | 103 | 0.0 | 2.0 | 0.00 | 0.00 | 0.00 | 88 | 1020.6 |
| 20260507010030 | 51 | 105 | 0.0 | 2.0 | 0.00 | 0.00 | 0.00 | 88 | 1020.6 |
| 20260507005505 | 51 | 105 | 0.0 | 2.0 | 0.00 | 0.00 | 0.00 | 88 | 1020.6 |
| 20260507005006 | 51 | 142 | 0.0 | 0.0 | 0.00 | 0.00 | 0.00 | 87 | 1020.6 |
| 20260507004513 | 51 | 142 | 0.0 | 1.0 | 0.00 | 0.00 | 0.00 | 88 | 1020.6 |
| 20260507004006 | 51 | 144 | 0.0 | 2.0 | 0.00 | 0.00 | 0.00 | 87 | 1020.6 |
| 20260507003506 | 51 | 144 | 0.0 | 2.0 | 0.00 | 0.00 | 0.00 | 88 | 1020.6 |
| 20260507003016 | 51 | 143 | 0.0 | 3.0 | 0.00 | 0.00 | 0.00 | 87 | 1020.7 |
| 20260507002507 | 51 | 143 | 0.0 | 3.0 | 0.00 | 0.00 | 0.00 | 86 | 1020.6 |
| 20260507002016 | 51 | 153 | 0.0 | 2.0 | 0.00 | 0.00 | 0.00 | 87 | 1020.6 |
| 20260507001523 | 51 | 151 | 0.0 | 4.0 | 0.00 | 0.00 | 0.00 | 86 | 1020.7 |
| 20260507001007 | 51 | 146 | 2.0 | 4.0 | 0.00 | 0.00 | 0.00 | 86 | 1020.7 |
| 20260507000508 | 51 | 147 | 1.0 | 2.0 | 0.00 | 0.00 | 0.00 | 88 | 1020.7 |
| 20260507000023 | 51 | 146 | 1.0 | 2.0 | 0.00 | 0.00 | 0.00 | 89 | 1020.7 |
| 20260506235509 | 51 | 134 | 1.0 | 2.0 | 0.00 | 0.00 | 0.00 | 88 | 1020.7 |
| 20260506235011 | 51 | 134 | 0.0 | 0.0 | 0.00 | 0.00 | 0.00 | 89 | 1020.7 |
| 20260506234509 | 51 | 134 | 0.0 | 0.0 | 0.00 | 0.00 | 0.00 | 88 | 1020.8 |
| 20260506234005 | 51 | 134 | 0.0 | 0.0 | 0.00 | 0.00 | 0.00 | 89 | 1020.8 |
| 20260506233507 | 51 | 134 | 0.0 | 0.0 | 0.00 | 0.00 | 0.00 | 88 | 1020.7 |
| 20260506233014 | 51 | 134 | 0.0 | 0.0 | 0.00 | 0.00 | 0.00 | 89 | 1020.7 |
| 20260506232504 | 51 | 134 | 0.0 | 0.0 | 0.00 | 0.00 | 0.00 | 89 | 1020.7 |
| 20260506232008 | 51 | 134 | 0.0 | 0.0 | 0.00 | 0.00 | 0.00 | 89 | 1020.7 |
| 20260506231518 | 51 | 134 | 0.0 | 1.0 | 0.00 | 0.00 | 0.00 | 88 | 1020.8 |
| 20260506231012 | 51 | 134 | 0.0 | 1.0 | 0.00 | 0.00 | 0.00 | 89 | 1020.8 |
| 20260506230507 | 51 | 134 | 0.0 | 1.0 | 0.00 | 0.00 | 0.00 | 90 | 1020.7 |
| 20260506230027 | 51 | 134 | 0.0 | 1.0 | 0.00 | 0.00 | 0.00 | 89 | 1020.7 |
| 20260506225508 | 51 | 134 | 0.0 | 2.0 | 0.00 | 0.00 | 0.00 | 90 | 1020.7 |
| 20260506225008 | 50 | 134 | 1.0 | 2.0 | 0.00 | 0.00 | 0.00 | 90 | 1020.7 |
| 20260506224525 | 50 | 92 | 1.0 | 2.0 | 0.00 | 0.00 | 0.00 | 91 | 1020.8 |
| 20260506224010 | 50 | 114 | 0.0 | 2.0 | 0.00 | 0.00 | 0.00 | 91 | 1020.8 |
| 20260506223510 | 50 | 114 | 0.0 | 2.0 | 0.00 | 0.00 | 0.00 | 89 | 1020.8 |
| 20260506223009 | 50 | 114 | 0.0 | 2.0 | 0.00 | 0.00 | 0.00 | 90 | 1020.9 |
| 20260506222504 | 50 | 114 | 0.0 | 2.0 | 0.00 | 0.00 | 0.00 | 90 | 1020.8 |
| 20260506222005 | 50 | 114 | 0.0 | 2.0 | 0.00 | 0.00 | 0.00 | 90 | 1021.0 |
| 20260506221514 | 50 | 114 | 0.0 | 2.0 | 0.00 | 0.00 | 0.00 | 90 | 1021.0 |
| 20260506221007 | 50 | 114 | 0.0 | 2.0 | 0.00 | 0.00 | 0.00 | 91 | 1021.0 |
| 20260506220507 | 50 | 114 | 0.0 | 2.0 | 0.00 | 0.00 | 0.00 | 91 | 1020.9 |
| 20260506220023 | 50 | 114 | 0.0 | 2.0 | 0.00 | 0.00 | 0.00 | 91 | 1021.0 |
| 20260506215512 | 50 | 114 | 0.0 | 1.0 | 0.00 | 0.00 | 0.00 | 92 | 1021.0 |
| 20260506215008 | 50 | 114 | 0.0 | 0.0 | 0.00 | 0.00 | 0.00 | 92 | 1021.0 |
| 20260506214524 | 50 | 114 | 0.0 | 1.0 | 0.00 | 0.00 | 0.00 | 92 | 1021.0 |
| 20260506214010 | 50 | 114 | 0.0 | 1.0 | 0.00 | 0.00 | 0.00 | 93 | 1020.9 |
| 20260506213511 | 50 | 114 | 0.0 | 0.0 | 0.00 | 0.00 | 0.00 | 93 | 1021.0 |
| 20260506213027 | 50 | 114 | 0.0 | 2.0 | 0.00 | 0.00 | 0.00 | 93 | 1020.9 |
| 20260506212507 | 50 | 114 | 0.0 | 2.0 | 0.00 | 0.00 | 0.00 | 94 | 1021.0 |
| 20260506212007 | 49 | 114 | 0.0 | 2.0 | 0.00 | 0.00 | 0.00 | 94 | 1020.9 |
| 20260506211511 | 49 | 114 | 0.0 | 2.0 | 0.00 | 0.00 | 0.00 | 94 | 1021.0 |
| 20260506211007 | 49 | 114 | 0.0 | 1.0 | 0.00 | 0.00 | 0.00 | 94 | 1021.0 |
| 20260506210507 | 49 | 114 | 0.0 | 1.0 | 0.00 | 0.00 | 0.00 | 94 | 1021.0 |
| 20260506210024 | 49 | 114 | 0.0 | 2.0 | 0.00 | 0.00 | 0.00 | 94 | 1020.9 |
| 20260506205507 | 49 | 114 | 0.0 | 2.0 | 0.00 | 0.00 | 0.00 | 94 | 1020.9 |
| 20260506205011 | 50 | 114 | 0.0 | 2.0 | 0.00 | 0.00 | 0.00 | 94 | 1020.8 |
| 20260506204523 | 49 | 114 | 0.0 | 2.0 | 0.00 | 0.00 | 0.00 | 93 | 1020.8 |
| 20260506204008 | 50 | 114 | 0.0 | 2.0 | 0.00 | 0.00 | 0.00 | 94 | 1020.8 |
| 20260506203508 | 50 | 114 | 0.0 | 2.0 | 0.00 | 0.00 | 0.00 | 94 | 1020.7 |
| 20260506203026 | 50 | 114 | 0.0 | 1.0 | 0.00 | 0.00 | 0.00 | 94 | 1020.8 |
| 20260506202510 | 49 | 114 | 0.0 | 2.0 | 0.00 | 0.00 | 0.00 | 94 | 1020.8 |
| 20260506202012 | 50 | 114 | 0.0 | 2.0 | 0.00 | 0.00 | 0.00 | 94 | 1020.7 |
| 20260506201536 | 50 | 114 | 0.0 | 2.0 | 0.00 | 0.00 | 0.00 | 94 | 1020.7 |
| 20260506201008 | 50 | 114 | 0.0 | 2.0 | 0.00 | 0.00 | 0.00 | 94 | 1020.8 |
| 20260506200505 | 50 | 114 | 0.0 | 2.0 | 0.00 | 0.00 | 0.00 | 94 | 1020.7 |
| 20260506200016 | 50 | 114 | 0.0 | 2.0 | 0.00 | 0.00 | 0.00 | 94 | 1020.6 |
| 20260506195508 | 50 | 113 | 0.0 | 2.0 | 0.00 | 0.00 | 0.00 | 94 | 1020.7 |
| 20260506195008 | 50 | 162 | 0.0 | 2.0 | 0.00 | 0.00 | 0.00 | 95 | 1020.5 |
| 20260506194518 | 50 | 148 | 0.0 | 2.0 | 0.00 | 0.00 | 0.00 | 95 | 1020.4 |
| 20260506194010 | 50 | 148 | 0.0 | 2.0 | 0.00 | 0.00 | 0.00 | 95 | 1020.4 |
| 20260506193508 | 50 | 148 | 0.0 | 2.0 | 0.00 | 0.00 | 0.00 | 95 | 1020.4 |
| 20260506193025 | 50 | 148 | 0.0 | 2.0 | 0.00 | 0.00 | 0.00 | 95 | 1020.4 |
| 20260506192504 | 50 | 148 | 0.0 | 3.0 | 0.00 | 0.00 | 0.00 | 95 | 1020.4 |
| 20260506192003 | 50 | 142 | 1.0 | 3.0 | 0.00 | 0.00 | 0.00 | 95 | 1020.4 |
| 20260506191508 | 50 | 155 | 0.0 | 4.0 | 0.00 | 0.00 | 0.00 | 95 | 1020.4 |
| 20260506191006 | 50 | 144 | 2.0 | 4.0 | 0.00 | 0.00 | 0.00 | 95 | 1020.4 |
| 20260506190505 | 50 | 155 | 1.0 | 5.0 | 0.00 | 0.00 | 0.00 | 96 | 1020.5 |
| 20260506190016 | 50 | 155 | 2.0 | 5.0 | 0.00 | 0.00 | 0.00 | 96 | 1020.5 |
| 20260506185505 | 50 | 151 | 2.0 | 4.0 | 0.00 | 0.00 | 0.00 | 96 | 1020.5 |
| 20260506185006 | 50 | 150 | 2.0 | 4.0 | 0.00 | 0.00 | 0.00 | 96 | 1020.5 |
| 20260506184520 | 50 | 159 | 1.0 | 4.0 | 0.00 | 0.00 | 0.00 | 96 | 1020.4 |
| 20260506184009 | 50 | 155 | 2.0 | 3.0 | 0.00 | 0.00 | 0.00 | 96 | 1020.4 |
| 20260506183503 | 50 | 155 | 1.0 | 2.0 | 0.00 | 0.00 | 0.00 | 96 | 1020.4 |
| 20260506183005 | 50 | 158 | 1.0 | 4.0 | 0.00 | 0.00 | 0.00 | 96 | 1020.4 |
| 20260506182504 | 50 | 159 | 1.0 | 4.0 | 0.00 | 0.00 | 0.00 | 96 | 1020.3 |
| 20260506182004 | 49 | 150 | 2.0 | 7.0 | 0.00 | 0.00 | 0.00 | 96 | 1020.1 |
| 20260506181512 | 49 | 159 | 2.0 | 7.0 | 0.00 | 0.00 | 0.00 | 96 | 1020.1 |
| 20260506181008 | 49 | 157 | 3.0 | 7.0 | 0.00 | 0.00 | 0.00 | 96 | 1020.1 |
| 20260506180506 | 49 | 157 | 2.0 | 5.0 | 0.00 | 0.00 | 0.00 | 96 | 1020.1 |
| 20260506180020 | 49 | 142 | 3.0 | 6.0 | 0.00 | 0.00 | 0.00 | 96 | 1020.1 |
| 20260506175504 | 49 | 157 | 1.0 | 6.0 | 0.00 | 0.00 | 0.00 | 96 | 1020.1 |
| 20260506175005 | 49 | 161 | 2.0 | 5.0 | 0.00 | 0.00 | 0.00 | 96 | 1020.0 |
| 20260506174523 | 49 | 161 | 2.0 | 5.0 | 0.00 | 0.00 | 0.00 | 96 | 1020.1 |
| 20260506174007 | 49 | 151 | 2.0 | 4.0 | 0.00 | 0.00 | 0.00 | 96 | 1020.3 |
| 20260506173510 | 49 | 149 | 1.0 | 4.0 | 0.00 | 0.00 | 0.00 | 96 | 1020.2 |
| 20260506173021 | 49 | 159 | 2.0 | 4.0 | 0.00 | 0.00 | 0.00 | 96 | 1020.1 |
| 20260506172507 | 49 | 161 | 0.0 | 3.0 | 0.00 | 0.00 | 0.00 | 96 | 1020.3 |
| 20260506172004 | 49 | 164 | 2.0 | 3.0 | 0.00 | 0.00 | 0.00 | 96 | 1020.3 |
| 20260506171508 | 49 | 152 | 1.0 | 3.0 | 0.00 | 0.00 | 0.00 | 96 | 1020.3 |
| 20260506171005 | 49 | 147 | 1.0 | 3.0 | 0.00 | 0.00 | 0.00 | 96 | 1020.2 |
| 20260506170503 | 50 | 156 | 1.0 | 4.0 | 0.00 | 0.00 | 0.00 | 96 | 1020.0 |
| 20260506170011 | 49 | 157 | 2.0 | 4.0 | 0.00 | 0.00 | 0.00 | 96 | 1020.0 |
| 20260506165508 | 49 | 155 | 2.0 | 3.0 | 0.00 | 0.00 | 0.00 | 96 | 1020.1 |
| 20260506165004 | 49 | 136 | 1.0 | 5.0 | 0.00 | 0.00 | 0.00 | 96 | 1020.1 |
| 20260506164514 | 49 | 156 | 3.0 | 4.0 | 0.00 | 0.00 | 0.00 | 96 | 1019.9 |
| 20260506164009 | 49 | 157 | 2.0 | 4.0 | 0.00 | 0.00 | 0.00 | 96 | 1019.7 |
| 20260506163509 | 49 | 149 | 2.0 | 5.0 | 0.00 | 0.00 | 0.00 | 96 | 1019.7 |
| 20260506163018 | 49 | 160 | 3.0 | 5.0 | 0.00 | 0.00 | 0.00 | 96 | 1019.6 |
| 20260506162507 | 49 | 153 | 1.0 | 8.0 | 0.00 | 0.00 | 0.00 | 96 | 1019.6 |
| 20260506162009 | 49 | 162 | 1.0 | 8.0 | 0.00 | 0.00 | 0.00 | 96 | 1019.5 |
| 20260506161521 | 49 | 144 | 3.0 | 7.0 | 0.00 | 0.00 | 0.00 | 96 | 1019.5 |
| 20260506161005 | 49 | 148 | 3.0 | 7.0 | 0.00 | 0.00 | 0.00 | 96 | 1019.7 |
| 20260506160505 | 49 | 150 | 1.0 | 6.0 | 0.00 | 0.00 | 0.00 | 96 | 1019.7 |
| 20260506160006 | 49 | 153 | 2.0 | 4.0 | 0.00 | 0.00 | 0.00 | 96 | 1019.8 |
| 20260506155508 | 49 | 158 | 1.0 | 2.0 | 0.00 | 0.00 | 0.00 | 96 | 1019.9 |
| 20260506155004 | 49 | 158 | 1.0 | 2.0 | 0.00 | 0.00 | 0.00 | 96 | 1019.9 |
| 20260506154513 | 49 | 157 | 0.0 | 3.0 | 0.00 | 0.00 | 0.00 | 96 | 1019.9 |
| 20260506154009 | 49 | 150 | 2.0 | 5.0 | 0.00 | 0.00 | 0.00 | 95 | 1019.8 |
| 20260506153508 | 49 | 154 | 1.0 | 5.0 | 0.00 | 0.00 | 0.00 | 95 | 1019.8 |
| 20260506153016 | 49 | 156 | 3.0 | 4.0 | 0.00 | 0.00 | 0.00 | 95 | 1019.7 |
| 20260506152505 | 49 | 154 | 2.0 | 9.0 | 0.00 | 0.00 | 0.00 | 95 | 1019.6 |
| 20260506152011 | 49 | 156 | 1.0 | 9.0 | 0.00 | 0.00 | 0.00 | 95 | 1019.5 |
| 20260506151524 | 49 | 165 | 3.0 | 7.0 | 0.00 | 0.00 | 0.00 | 95 | 1019.5 |
| 20260506151008 | 49 | 159 | 4.0 | 7.0 | 0.00 | 0.00 | 0.00 | 95 | 1019.6 |
| 20260506150510 | 49 | 163 | 4.0 | 7.0 | 0.00 | 0.00 | 0.00 | 95 | 1019.6 |
| 20260506150021 | 49 | 153 | 3.0 | 6.0 | 0.00 | 0.00 | 0.00 | 95 | 1019.6 |
| 20260506145503 | 49 | 146 | 3.0 | 6.0 | 0.00 | 0.00 | 0.00 | 95 | 1019.7 |
| 20260506145004 | 49 | 157 | 3.0 | 4.0 | 0.00 | 0.00 | 0.00 | 95 | 1019.7 |
| 20260506144509 | 49 | 153 | 1.0 | 5.0 | 0.00 | 0.00 | 0.00 | 95 | 1019.7 |
| 20260506144006 | 49 | 164 | 2.0 | 5.0 | 0.00 | 0.00 | 0.00 | 95 | 1019.5 |
| 20260506143505 | 49 | 132 | 2.0 | 6.0 | 0.00 | 0.00 | 0.00 | 95 | 1019.5 |
| 20260506143012 | 49 | 159 | 1.0 | 7.0 | 0.00 | 0.00 | 0.00 | 95 | 1019.3 |
| 20260506142508 | 49 | 169 | 2.0 | 7.0 | 0.00 | 0.00 | 0.00 | 95 | 1019.3 |
| 20260506142014 | 49 | 169 | 4.0 | 7.0 | 0.00 | 0.00 | 0.00 | 95 | 1019.3 |
| 20260506141517 | 49 | 153 | 2.0 | 5.0 | 0.00 | 0.00 | 0.00 | 95 | 1019.3 |
| 20260506141008 | 49 | 159 | 2.0 | 5.0 | 0.00 | 0.00 | 0.00 | 95 | 1019.3 |
| 20260506140510 | 49 | 156 | 2.0 | 4.0 | 0.00 | 0.00 | 0.00 | 95 | 1019.5 |
| 20260506140026 | 49 | 155 | 1.0 | 5.0 | 0.00 | 0.00 | 0.00 | 95 | 1019.4 |
| 20260506135507 | 49 | 154 | 3.0 | 6.0 | 0.00 | 0.00 | 0.00 | 95 | 1019.2 |
| 20260506135009 | 49 | 149 | 3.0 | 6.0 | 0.00 | 0.00 | 0.00 | 95 | 1019.4 |
| 20260506134523 | 49 | 163 | 1.0 | 6.0 | 0.00 | 0.00 | 0.00 | 95 | 1019.4 |
| 20260506134007 | 49 | 153 | 1.0 | 6.0 | 0.00 | 0.00 | 0.00 | 95 | 1019.3 |
| 20260506133503 | 49 | 157 | 1.0 | 5.0 | 0.00 | 0.00 | 0.00 | 95 | 1019.1 |
| 20260506133014 | 49 | 155 | 3.0 | 4.0 | 0.00 | 0.00 | 0.00 | 95 | 1019.1 |
| 20260506132508 | 49 | 150 | 2.0 | 8.0 | 0.00 | 0.00 | 0.00 | 95 | 1019.1 |
| 20260506132008 | 49 | 163 | 3.0 | 8.0 | 0.00 | 0.00 | 0.00 | 95 | 1018.7 |
| 20260506131518 | 49 | 162 | 3.0 | 6.0 | 0.00 | 0.00 | 0.00 | 95 | 1018.7 |
| 20260506131007 | 49 | 163 | 3.0 | 6.0 | 0.00 | 0.00 | 0.00 | 95 | 1018.8 |
| 20260506130506 | 49 | 161 | 3.0 | 6.0 | 0.00 | 0.00 | 0.00 | 95 | 1018.8 |
| 20260506130022 | 49 | 159 | 2.0 | 5.0 | 0.00 | 0.00 | 0.00 | 95 | 1018.9 |
| 20260506125507 | 49 | 153 | 3.0 | 5.0 | 0.00 | 0.00 | 0.00 | 95 | 1018.8 |
| 20260506125012 | 49 | 153 | 2.0 | 7.0 | 0.00 | 0.00 | 0.00 | 95 | 1018.7 |
| 20260506124531 | 49 | 153 | 3.0 | 7.0 | 0.00 | 0.00 | 0.00 | 95 | 1018.7 |
| 20260506124010 | 49 | 150 | 3.0 | 5.0 | 0.00 | 0.00 | 0.00 | 95 | 1018.6 |
| 20260506123508 | 49 | 155 | 2.0 | 5.0 | 0.00 | 0.00 | 0.00 | 95 | 1018.6 |
| 20260506123026 | 49 | 156 | 1.0 | 6.0 | 0.00 | 0.00 | 0.00 | 95 | 1018.6 |
| 20260506122508 | 49 | 155 | 2.0 | 6.0 | 0.00 | 0.00 | 0.00 | 95 | 1018.6 |
| 20260506122009 | 49 | 159 | 2.0 | 5.0 | 0.00 | 0.00 | 0.00 | 95 | 1018.7 |
| 20260506121514 | 49 | 157 | 3.0 | 6.0 | 0.00 | 0.00 | 0.00 | 94 | 1018.7 |
| 20260506121006 | 49 | 151 | 3.0 | 6.0 | 0.00 | 0.00 | 0.00 | 94 | 1018.7 |
| 20260506120507 | 49 | 161 | 1.0 | 7.0 | 0.00 | 0.00 | 0.00 | 94 | 1018.6 |
| 20260506120020 | 49 | 143 | 3.0 | 8.0 | 0.00 | 0.00 | 0.00 | 94 | 1018.5 |
| 20260506115509 | 49 | 157 | 2.0 | 8.0 | 0.00 | 0.00 | 0.00 | 94 | 1018.4 |
| 20260506115011 | 49 | 158 | 3.0 | 6.0 | 0.00 | 0.00 | 0.00 | 94 | 1018.4 |
| 20260506114534 | 49 | 157 | 2.0 | 7.0 | 0.00 | 0.00 | 0.00 | 94 | 1018.4 |
| 20260506114008 | 49 | 161 | 3.0 | 7.0 | 0.00 | 0.00 | 0.00 | 93 | 1018.5 |
| 20260506113509 | 50 | 144 | 2.0 | 6.0 | 0.00 | 0.00 | 0.00 | 93 | 1018.5 |
| 20260506113024 | 50 | 158 | 3.0 | 6.0 | 0.00 | 0.00 | 0.00 | 93 | 1018.4 |
| 20260506112510 | 50 | 161 | 1.0 | 5.0 | 0.00 | 0.00 | 0.00 | 93 | 1018.3 |
| 20260506112011 | 50 | 153 | 1.0 | 5.0 | 0.00 | 0.00 | 0.00 | 93 | 1018.5 |
| 20260506111511 | 50 | 158 | 2.0 | 4.0 | 0.00 | 0.00 | 0.00 | 93 | 1018.4 |
| 20260506111010 | 50 | 153 | 2.0 | 3.0 | 0.00 | 0.00 | 0.00 | 93 | 1018.3 |
| 20260506110505 | 49 | 153 | 1.0 | 2.0 | 0.00 | 0.00 | 0.00 | 93 | 1018.3 |
| 20260506110020 | 49 | 159 | 1.0 | 2.0 | 0.00 | 0.00 | 0.00 | 93 | 1018.3 |
| 20260506105513 | 50 | 159 | 2.0 | 2.0 | 0.00 | 0.00 | 0.00 | 93 | 1018.3 |
| 20260506105006 | 50 | 157 | 0.0 | 2.0 | 0.00 | 0.00 | 0.00 | 92 | 1018.3 |
| 20260506104522 | 50 | 157 | 1.0 | 2.0 | 0.00 | 0.00 | 0.00 | 92 | 1018.2 |
| 20260506104008 | 50 | 151 | 0.0 | 2.0 | 0.00 | 0.00 | 0.00 | 92 | 1018.1 |
| 20260506103514 | 50 | 155 | 0.0 | 1.0 | 0.00 | 0.00 | 0.00 | 92 | 1018.1 |
| 20260506103029 | 50 | 155 | 0.0 | 2.0 | 0.00 | 0.00 | 0.00 | 92 | 1018.1 |
| 20260506102513 | 50 | 155 | 0.0 | 2.0 | 0.00 | 0.00 | 0.00 | 92 | 1018.1 |
| 20260506102010 | 50 | 155 | 1.0 | 2.0 | 0.00 | 0.00 | 0.00 | 91 | 1018.2 |
| 20260506101526 | 50 | 155 | 0.0 | 2.0 | 0.00 | 0.00 | 0.00 | 91 | 1018.0 |
| 20260506101003 | 50 | 155 | 1.0 | 3.0 | 0.00 | 0.00 | 0.00 | 91 | 1018.0 |
| 20260506100503 | 51 | 155 | 1.0 | 3.0 | 0.00 | 0.00 | 0.00 | 91 | 1017.9 |
| 20260506100018 | 51 | 159 | 0.0 | 4.0 | 0.00 | 0.00 | 0.00 | 91 | 1017.9 |
| 20260506095504 | 51 | 157 | 2.0 | 4.0 | 0.00 | 0.00 | 0.00 | 91 | 1017.9 |
| 20260506095006 | 51 | 157 | 2.0 | 4.0 | 0.00 | 0.00 | 0.00 | 91 | 1017.8 |
| 20260506094503 | 51 | 155 | 2.0 | 5.0 | 0.00 | 0.00 | 0.00 | 91 | 1017.8 |
| 20260506094003 | 51 | 154 | 1.0 | 5.0 | 0.00 | 0.00 | 0.00 | 91 | 1017.9 |
| 20260506093503 | 51 | 155 | 2.0 | 5.0 | 0.00 | 0.00 | 0.00 | 91 | 1017.8 |
| 20260506093007 | 51 | 148 | 2.0 | 6.0 | 0.00 | 0.00 | 0.00 | 91 | 1017.7 |
| 20260506092507 | 51 | 159 | 3.0 | 7.0 | 0.00 | 0.00 | 0.00 | 91 | 1017.7 |
| 20260506092006 | 51 | 149 | 2.0 | 7.0 | 0.00 | 0.00 | 0.00 | 90 | 1017.6 |
| 20260506091510 | 51 | 146 | 3.0 | 7.0 | 0.00 | 0.00 | 0.00 | 90 | 1017.6 |
| 20260506091003 | 51 | 160 | 1.0 | 5.0 | 0.00 | 0.00 | 0.00 | 90 | 1017.5 |
| 20260506090504 | 51 | 152 | 2.0 | 5.0 | 0.00 | 0.00 | 0.00 | 90 | 1017.5 |
| 20260506090010 | 51 | 156 | 2.0 | 5.0 | 0.00 | 0.00 | 0.00 | 90 | 1017.5 |
| 20260506085503 | 51 | 155 | 1.0 | 4.0 | 0.00 | 0.00 | 0.00 | 90 | 1017.6 |
| 20260506084004 | 51 | 146 | 2.0 | 3.0 | 0.00 | 0.00 | 0.00 | 89 | 1017.4 |
| 20260506083506 | 51 | 154 | 1.0 | 4.0 | 0.00 | 0.00 | 0.00 | 89 | 1017.4 |
| 20260506083004 | 51 | 159 | 2.0 | 4.0 | 0.00 | 0.00 | 0.00 | 89 | 1017.4 |
| 20260506082503 | 51 | 157 | 2.0 | 4.0 | 0.00 | 0.00 | 0.00 | 89 | 1017.4 |
| 20260506082003 | 51 | 153 | 1.0 | 2.0 | 0.00 | 0.00 | 0.00 | 90 | 1017.5 |
| 20260506081507 | 51 | 153 | 0.0 | 2.0 | 0.00 | 0.00 | 0.00 | 89 | 1017.5 |
| 20260506081007 | 51 | 151 | 0.0 | 3.0 | 0.00 | 0.00 | 0.00 | 90 | 1017.5 |
| 20260506080504 | 51 | 152 | 1.0 | 3.0 | 0.00 | 0.00 | 0.00 | 89 | 1017.5 |
| 20260506072506 | 51 | 146 | 0.0 | 0.0 | 0.00 | 0.00 | 0.00 | 90 | 1017.3 |
| 20260506072010 | 51 | 146 | 0.0 | 1.0 | 0.00 | 0.00 | 0.00 | 91 | 1017.4 |
| 20260506071506 | 51 | 146 | 0.0 | 2.0 | 0.00 | 0.00 | 0.00 | 91 | 1017.4 |
| 20260506071003 | 51 | 146 | 0.0 | 2.0 | 0.00 | 0.00 | 0.00 | 91 | 1017.3 |
| 20260506070505 | 51 | 146 | 0.0 | 2.0 | 0.00 | 0.00 | 0.00 | 90 | 1017.2 |
| 20260506061008 | 53 | 146 | 0.0 | 0.0 | 0.00 | 0.00 | 0.00 | 89 | 1016.8 |
| 20260506060504 | 53 | 146 | 0.0 | 0.0 | 0.00 | 0.00 | 0.00 | 89 | 1016.7 |
| 20260506050506 | 53 | 146 | 0.0 | 0.0 | 0.00 | 0.00 | 0.00 | 87 | 1016.4 |
| 20260506045003 | 53 | 146 | 0.0 | 0.0 | 0.00 | 0.00 | 0.00 | 87 | 1016.5 |
| 20260506044511 | 53 | 146 | 0.0 | 0.0 | 0.00 | 0.00 | 0.00 | 87 | 1016.5 |
| 20260506044003 | 53 | 146 | 0.0 | 0.0 | 0.00 | 0.00 | 0.00 | 87 | 1016.4 |
| 20260506043503 | 54 | 146 | 0.0 | 0.0 | 0.00 | 0.00 | 0.00 | 87 | 1016.4 |
| 20260506043014 | 54 | 146 | 0.0 | 0.0 | 0.00 | 0.00 | 0.00 | 87 | 1016.4 |
| 20260506042510 | 54 | 146 | 0.0 | 0.0 | 0.00 | 0.00 | 0.00 | 87 | 1016.4 |
| 20260506042009 | 54 | 146 | 0.0 | 0.0 | 0.00 | 0.00 | 0.00 | 87 | 1016.4 |
| 20260506041514 | 53 | 146 | 0.0 | 0.0 | 0.00 | 0.00 | 0.00 | 87 | 1016.4 |
| 20260506041008 | 54 | 146 | 0.0 | 0.0 | 0.00 | 0.00 | 0.00 | 87 | 1016.3 |
| 20260506040513 | 54 | 146 | 0.0 | 0.0 | 0.00 | 0.00 | 0.00 | 86 | 1016.3 |
| 20260506040016 | 54 | 146 | 0.0 | 0.0 | 0.00 | 0.00 | 0.00 | 86 | 1016.3 |
| 20260506035509 | 54 | 146 | 0.0 | 0.0 | 0.00 | 0.00 | 0.00 | 86 | 1016.2 |
| 20260506035007 | 54 | 146 | 0.0 | 0.0 | 0.00 | 0.00 | 0.00 | 86 | 1016.2 |
| 20260506034512 | 54 | 146 | 0.0 | 0.0 | 0.00 | 0.00 | 0.00 | 86 | 1016.2 |
| 20260506034005 | 54 | 146 | 0.0 | 0.0 | 0.00 | 0.00 | 0.00 | 85 | 1016.1 |
| 20260506033505 | 54 | 146 | 0.0 | 0.0 | 0.00 | 0.00 | 0.00 | 85 | 1016.1 |
| 20260506033012 | 55 | 146 | 0.0 | 0.0 | 0.00 | 0.00 | 0.00 | 85 | 1016.0 |